Torna al catalogo

FLOCK 4H 30

AttivoScienzaSSO
NORAD 66733·PAYLOAD·🇺🇸 United States

Lanciato Nov 28, 2025 da Vandenberg Space Force Base

Loading…

Prossimi Passaggi (prossime 24 ore)

TLE

AggiornatoSource: CelesTrak SupGP

Epoca: Sep 14, 2026, 06:45 UTC

1 66733C 25276BV  26257.28133102  .00007472  00000+0  33936-3 0  2572
2 66733  97.4162 329.4570 0005710  71.4005 356.8314 15.20833140    14

Traccia FLOCK 4H 30 in tempo reale con AllMySat

Download on the App Store